Location: Tierra del Sol
(32.6128°N, 116.3319°W)
Time: 10:21:39
(UTC-07:00)

Tiangong 2 - Pass Details

Date: 08 October 2017
Orbit: 388 x 391 km, 42.8° (Epoch: 23 October)

Event Time Altitude Azimuth Distance (km) Brightness Sun altitude
Exits shadow 04:23:05 11° 88° (E) 1,337 4.6 -30.4°
Drops below altitude 10° 04:23:15 10° 86° (E) 1,395 4.8 -30.4°
Sets 04:25:38 0° 71° (ENE) 2,276 6.2 -29.9°
